Retour au catalogue

FENGYUN 1C DEB

ActifSSO
NORAD 30860·DEBRIS·🇨🇳 China

Lancé May 10, 1999 depuis Taiyuan Satellite Launch Center

Loading…

Prochains Passages (prochaines 24 heures)

TLE

FraisSource: Space-Track

Époque: Sep 14, 2026, 11:31 UTC

1 30860U 99025AWW 26257.48012260  .00001746  00000-0  72923-3 0  9991
2 30860  98.8915 340.2967 0039379 112.2931 248.2432 14.27080874  4471

Suivez FENGYUN 1C DEB en temps réel avec AllMySat

Download on the App Store